FANG11 LCRA-EGVA

Flight info

Callsign FANG11
Flight time N/A
Altitude 47000
Route PHA DCT CLD DCT FSK DCT BUI DCT KIS DCT LBL DCT SUL DCT BNE DCT CPT
Aircraft EUFI/M-SDGHITUY/LB1

Departure

Time 2026-04-19 18:49
Airport RAF Akrotiri (LCRA)

Arrival

Time N/A
Airport RAF Fairford (EGVA)
Time Latitude Longitude Altitude Speed Heading
2026-04-19 18:46 34.58411 33.00251 81 ft 0 kts 117°
2026-04-19 18:47 34.58402 33.00265 85 ft 1 kts 163°
2026-04-19 18:47 34.58391 33.00245 82 ft 6 kts 252°
2026-04-19 18:47 34.58405 33.00195 81 ft 7 kts 346°
2026-04-19 18:47 34.58473 33.00150 81 ft 20 kts 333°
2026-04-19 18:48 34.58585 33.00155 81 ft 16 kts 41°
2026-04-19 18:48 34.58667 33.00169 81 ft 9 kts 301°
2026-04-19 18:48 34.58678 33.00135 82 ft 0 kts 288°
2026-04-19 18:49 34.58820 32.99599 81 ft 178 kts 286°
2026-04-19 18:49 34.59441 32.97274 471 ft 413 kts 288°
2026-04-19 18:49 34.60515 32.93148 1344 ft 611 kts 287°
2026-04-19 18:50 34.61916 32.87824 2793 ft 645 kts 286°
2026-04-19 18:50 34.63406 32.84550 7898 ft 299 kts 303°
2026-04-19 18:50 34.64462 32.82391 10337 ft 279 kts 285°
2026-04-19 18:50 34.64851 32.80284 10410 ft 236 kts 280°
2026-04-19 18:51 34.65124 32.78434 10385 ft 214 kts 279°
2026-04-19 18:51 34.65386 32.76671 10338 ft 215 kts 280°
2026-04-19 18:51 34.65675 32.74874 10323 ft 216 kts 281°
2026-04-19 18:52 34.66259 32.71312 10353 ft 213 kts 281°
2026-04-19 18:52 34.66532 32.69573 10395 ft 210 kts 280°
2026-04-19 18:52 34.66791 32.67835 10469 ft 207 kts 279°
2026-04-19 18:52 34.67282 32.66071 10618 ft 244 kts 302°
2026-04-19 18:53 34.68757 32.64586 10948 ft 339 kts 326°
2026-04-19 18:53 34.71193 32.62690 11178 ft 477 kts 325°
2026-04-19 18:53 34.73193 32.61125 7887 ft 145 kts 325°
2026-04-19 18:53 34.74840 32.59557 1019 ft 412 kts 320°
2026-04-19 18:54 34.76940 32.57465 584 ft 365 kts 320°
2026-04-19 18:54 34.78670 32.55722 1376 ft 287 kts 320°
2026-04-19 18:54 34.80007 32.54356 2224 ft 212 kts 320°
2026-04-19 18:54 34.80954 32.53379 2667 ft 147 kts 318°
2026-04-19 18:55 34.81635 32.52639 2345 ft 132 kts 317°
2026-04-19 18:55 34.82405 32.51718 1787 ft 189 kts 311°
2026-04-19 18:55 34.83457 32.50415 1921 ft 237 kts 317°
2026-04-19 18:55 34.84795 32.48914 2249 ft 286 kts 316°
2026-04-19 18:56 34.86328 32.47060 2679 ft 331 kts 314°
2026-04-19 18:56 34.88000 32.44900 3198 ft 368 kts 313°
2026-04-19 18:56 34.89818 32.42507 3823 ft 398 kts 313°
2026-04-19 18:56 34.91724 32.39975 4544 ft 420 kts 313°
2026-04-19 18:57 34.94005 32.37659 5319 ft 433 kts 327°
2026-04-19 18:57 34.96741 32.36105 6215 ft 442 kts 342°
2026-04-19 18:57 34.99770 32.35426 7138 ft 443 kts 356°
2026-04-19 18:57 35.02848 32.35666 8151 ft 445 kts
2026-04-19 18:58 35.05805 32.36787 9281 ft 444 kts 22°
2026-04-19 18:58 35.08446 32.38707 10440 ft 440 kts 36°
2026-04-19 18:58 35.10615 32.41302 11648 ft 433 kts 50°
2026-04-19 18:58 35.12158 32.44363 12943 ft 423 kts 64°
2026-04-19 18:59 35.12998 32.47742 14280 ft 406 kts 81°
2026-04-19 18:59 35.13020 32.51073 15585 ft 380 kts 100°
2026-04-19 18:59 35.12196 32.53930 16872 ft 342 kts 130°
2026-04-19 18:59 35.10308 32.55392 16841 ft 330 kts 178°
2026-04-19 19:00 35.07785 32.54825 16105 ft 416 kts 204°
2026-04-19 19:00 35.04872 32.53317 15479 ft 476 kts 207°
2026-04-19 19:00 35.01795 32.51681 11685 ft 231 kts 206°
2026-04-19 19:00 34.99699 32.48700 4458 ft 569 kts 234°
2026-04-19 19:01 34.97063 32.44871 4523 ft 639 kts 229°
2026-04-19 19:01 34.93906 32.40767 3629 ft 640 kts 227°
2026-04-19 19:01 34.90658 32.36961 3400 ft 701 kts 217°
2026-04-19 19:01 34.86521 32.34279 4341 ft 590 kts 202°
2026-04-19 19:02 34.82872 32.33715 4811 ft 542 kts 170°
2026-04-19 19:02 34.79485 32.34420 4726 ft 454 kts 171°
2026-04-19 19:02 34.76436 32.35111 4804 ft 419 kts 169°
2026-04-19 19:02 34.74201 32.36610 4669 ft 348 kts 119°
2026-04-19 19:03 34.73076 32.39102 3974 ft 326 kts 121°
2026-04-19 19:03 34.71852 32.41286 3671 ft 297 kts 126°
2026-04-19 19:03 34.70693 32.43186 3376 ft 271 kts 121°
2026-04-19 19:03 34.69779 32.45088 3238 ft 246 kts 119°
2026-04-19 19:04 34.68999 32.46776 3064 ft 212 kts 118°
2026-04-19 19:04 34.68331 32.48243 2793 ft 189 kts 118°
2026-04-19 19:04 34.67675 32.49705 2525 ft 216 kts 112°
2026-04-19 19:04 34.68182 32.51227 2303 ft 222 kts 17°
2026-04-19 19:05 34.69575 32.51820 1781 ft 206 kts 15°
2026-04-19 19:05 34.70802 32.51578 841 ft 191 kts 304°
2026-04-19 19:05 34.71314 32.50080 113 ft 184 kts 292°
2026-04-19 19:05 34.71735 32.48742 43 ft 147 kts 291°
2026-04-19 19:06 34.72194 32.47231 130 ft 296 kts 291°
2026-04-19 19:06 34.73683 32.44030 147 ft 561 kts 303°
2026-04-19 19:06 34.76336 32.39687 85 ft 711 kts 310°
2026-04-19 19:06 34.79588 32.35268 4139 ft 720 kts 312°
2026-04-19 19:07 34.83134 32.30521 6634 ft 788 kts 312°
2026-04-19 19:07 34.86968 32.25387 8963 ft 847 kts 312°
2026-04-19 19:07 34.91011 32.19971 11236 ft 895 kts 312°
2026-04-19 19:07 34.95311 32.14207 13603 ft 945 kts 311°
2026-04-19 19:08 34.99859 32.08102 15855 ft 999 kts 311°
2026-04-19 19:08 35.04628 32.01691 18249 ft 1033 kts 311°
2026-04-19 19:08 35.09525 31.95102 20481 ft 1046 kts 311°
2026-04-19 19:08 35.14426 31.88503 22872 ft 1047 kts 311°
2026-04-19 19:09 35.19267 31.81985 25083 ft 1047 kts 311°
2026-04-19 19:09 35.24215 31.75316 27399 ft 1071 kts 310°
2026-04-19 19:09 35.29320 31.68434 29936 ft 1109 kts 311°
2026-04-19 19:09 35.34694 31.61464 32190 ft 1136 kts 311°
2026-04-19 19:10 35.40155 31.54322 34500 ft 1154 kts 311°
2026-04-19 19:10 35.45572 31.46999 36678 ft 1163 kts 310°
2026-04-19 19:10 35.50864 31.39598 38947 ft 1168 kts 309°
2026-04-19 19:10 35.56239 31.32095 41031 ft 1164 kts 310°
2026-04-19 19:11 35.61642 31.24709 43327 ft 1160 kts 310°
2026-04-19 19:11 35.67091 31.17410 45396 ft 1161 kts 311°
2026-04-19 19:11 35.72630 31.10049 45444 ft 1175 kts 311°
2026-04-19 19:11 35.78232 31.02627 45480 ft 1187 kts 311°
2026-04-19 19:12 35.83883 30.95143 45504 ft 1198 kts 311°
2026-04-19 19:12 35.89522 30.87670 45539 ft 1207 kts 311°
2026-04-19 19:12 36.01040 30.72377 45586 ft 1221 kts 311°
2026-04-19 19:13 36.12670 30.56911 45585 ft 1231 kts 311°
2026-04-19 19:13 36.24316 30.41415 46023 ft 1235 kts 311°
2026-04-19 19:14 36.30208 30.33572 45780 ft 1242 kts 311°
2026-04-19 19:14 36.36106 30.25719 45650 ft 1247 kts 311°
2026-04-19 19:14 36.47983 30.09857 45642 ft 1253 kts 311°
2026-04-19 19:15 36.59384 29.93483 45505 ft 1257 kts 309°
2026-04-19 19:15 36.64954 29.85191 45344 ft 1260 kts 309°
2026-04-19 19:15 36.70604 29.76767 45122 ft 1263 kts 309°
2026-04-19 19:16 36.76250 29.68342 44851 ft 1266 kts 309°
2026-04-19 19:16 36.81839 29.59997 44525 ft 1269 kts 309°
2026-04-19 19:16 36.87535 29.51489 44129 ft 1273 kts 309°
2026-04-19 19:16 36.93216 29.43001 43717 ft 1276 kts 309°
2026-04-19 19:17 36.98936 29.34451 43258 ft 1279 kts 309°
2026-04-19 19:17 37.04600 29.25854 42754 ft 1281 kts 307°
2026-04-19 19:17 37.08012 29.19823 42371 ft 1281 kts 301°
2026-04-19 19:17 37.12237 29.09991 41766 ft 1283 kts 293°
2026-04-19 19:18 37.15330 28.99479 41147 ft 1285 kts 286°
2026-04-19 19:18 37.17672 28.84916 40300 ft 1289 kts 276°
2026-04-19 19:18 37.18115 28.77311 39861 ft 1291 kts 272°
2026-04-19 19:18 37.17883 28.66160 39182 ft 1296 kts 266°
2026-04-19 19:19 37.16636 28.54950 38399 ft 1301 kts 259°
2026-04-19 19:19 37.14437 28.43909 37435 ft 1307 kts 255°
2026-04-19 19:19 37.11886 28.32975 37278 ft 1305 kts 255°
2026-04-19 19:20 37.06785 28.11158 36836 ft 1302 kts 255°
2026-04-19 19:20 37.04239 28.00250 36524 ft 1302 kts 255°
2026-04-19 19:20 37.01720 27.89444 36157 ft 1303 kts 255°
2026-04-19 19:20 36.99174 27.78507 35692 ft 1305 kts 255°
2026-04-19 19:21 36.96641 27.67605 35139 ft 1307 kts 256°
2026-04-19 19:21 36.94129 27.56776 34488 ft 1310 kts 256°
2026-04-19 19:21 36.91588 27.45793 33717 ft 1313 kts 256°
2026-04-19 19:21 36.89051 27.34803 32717 ft 1317 kts 256°
2026-04-19 19:22 36.86506 27.23764 31638 ft 1321 kts 256°
2026-04-19 19:22 36.83961 27.12707 30572 ft 1323 kts 256°
2026-04-19 19:22 36.81452 27.01790 29412 ft 1324 kts 256°
2026-04-19 19:22 36.78912 26.90729 28157 ft 1322 kts 256°
2026-04-19 19:23 36.76424 26.79697 27085 ft 1314 kts 257°
2026-04-19 19:23 36.74657 26.68617 26878 ft 1283 kts 263°
2026-04-19 19:23 36.72286 26.57921 26847 ft 1276 kts 253°
2026-04-19 19:23 36.69508 26.47479 27611 ft 1263 kts 254°
2026-04-19 19:24 36.66731 26.37114 28438 ft 1257 kts 253°
2026-04-19 19:24 36.63969 26.26876 29247 ft 1257 kts 253°
2026-04-19 19:24 36.61163 26.16535 30048 ft 1258 kts 253°
2026-04-19 19:24 36.58336 26.06173 30729 ft 1259 kts 253°
2026-04-19 19:25 36.55497 25.95813 31392 ft 1261 kts 253°
2026-04-19 19:25 36.52693 25.85621 32040 ft 1262 kts 253°
2026-04-19 19:25 36.49826 25.75230 32664 ft 1264 kts 253°
2026-04-19 19:25 36.46961 25.64880 32916 ft 1269 kts 253°
2026-04-19 19:26 36.44070 25.54470 33139 ft 1273 kts 253°
2026-04-19 19:26 36.41209 25.44197 33311 ft 1276 kts 253°
2026-04-19 19:26 36.38299 25.33771 33445 ft 1278 kts 252°
2026-04-19 19:27 36.32445 25.12882 33625 ft 1282 kts 252°
2026-04-19 19:27 36.26549 24.91973 33733 ft 1284 kts 252°
2026-04-19 19:28 36.20631 24.71124 33790 ft 1286 kts 252°
2026-04-19 19:28 36.14668 24.50259 33669 ft 1289 kts 252°
2026-04-19 19:29 36.07021 24.30525 31706 ft 1145 kts 239°
2026-04-19 19:29 36.06141 24.27716 5461 ft 631 kts 47°
2026-04-19 19:29 36.08152 24.30904 1891 ft 280 kts 54°
2026-04-19 19:29 36.09485 24.31895 2753 ft 257 kts 277°
2026-04-19 19:30 36.08292 24.31215 2777 ft 291 kts 174°
2026-04-19 19:30 36.05703 24.30612 2062 ft 478 kts 199°
2026-04-19 19:30 36.01911 24.28691 2368 ft 683 kts 209°
2026-04-19 19:30 35.97919 24.24776 2753 ft 775 kts 227°
2026-04-19 19:31 35.94715 24.19235 3156 ft 829 kts 242°
2026-04-19 19:31 35.92533 24.12493 3445 ft 861 kts 255°
2026-04-19 19:31 35.90986 24.05343 3611 ft 869 kts 255°
2026-04-19 19:31 35.89403 23.98032 4176 ft 886 kts 255°
2026-04-19 19:32 35.87761 23.90627 5231 ft 901 kts 255°
2026-04-19 19:32 35.86052 23.83096 6320 ft 919 kts 255°
2026-04-19 19:32 35.84276 23.75441 7359 ft 941 kts 255°
2026-04-19 19:32 35.82440 23.67689 8347 ft 964 kts 255°
2026-04-19 19:33 35.80503 23.59666 9398 ft 987 kts 254°
2026-04-19 19:33 35.78508 23.51477 10447 ft 1009 kts 255°
2026-04-19 19:33 35.76555 23.43033 11490 ft 1027 kts 255°
2026-04-19 19:33 35.74701 23.34559 12579 ft 1040 kts 256°
2026-04-19 19:34 35.72888 23.25845 13749 ft 1055 kts 257°
2026-04-19 19:34 35.71127 23.17016 14846 ft 1072 kts 257°
2026-04-19 19:34 35.69375 23.08021 15982 ft 1082 kts 257°
2026-04-19 19:34 35.67651 22.99111 17167 ft 1086 kts 257°
2026-04-19 19:35 35.65887 22.90052 18433 ft 1086 kts 257°
2026-04-19 19:35 35.64101 22.80996 19558 ft 1085 kts 257°
2026-04-19 19:35 35.62293 22.71971 20741 ft 1082 kts 257°
2026-04-19 19:35 35.60485 22.63102 21954 ft 1078 kts 257°
2026-04-19 19:36 35.58635 22.54184 23240 ft 1073 kts 257°
2026-04-19 19:36 35.56756 22.45282 24430 ft 1068 kts 257°
2026-04-19 19:36 35.54865 22.36479 25582 ft 1062 kts 257°
2026-04-19 19:36 35.52969 22.27780 26788 ft 1069 kts 256°
2026-04-19 19:37 35.51002 22.18872 28097 ft 1090 kts 256°
2026-04-19 19:37 35.48971 22.09768 29526 ft 1119 kts 256°
2026-04-19 19:37 35.46869 22.00438 30926 ft 1146 kts 256°
2026-04-19 19:37 35.44737 21.91053 32290 ft 1167 kts 256°
2026-04-19 19:38 35.42513 21.81353 33755 ft 1183 kts 256°
2026-04-19 19:38 35.40250 21.71567 35110 ft 1194 kts 255°
2026-04-19 19:38 35.37989 21.61873 36459 ft 1199 kts 255°
2026-04-19 19:38 35.35666 21.51994 37925 ft 1201 kts 255°
2026-04-19 19:39 35.33330 21.42139 39337 ft 1201 kts 255°
2026-04-19 19:39 35.30981 21.32298 40640 ft 1200 kts 255°
2026-04-19 19:39 35.28646 21.22585 42011 ft 1199 kts 254°
2026-04-19 19:39 35.26282 21.12808 43465 ft 1197 kts 254°
2026-04-19 19:40 35.23904 21.03030 44970 ft 1195 kts 254°
2026-04-19 19:40 35.21520 20.93282 46339 ft 1192 kts 254°
2026-04-19 19:40 35.19159 20.83670 47680 ft 1189 kts 254°
2026-04-19 19:40 35.16765 20.73965 49035 ft 1186 kts 254°
2026-04-19 19:41 35.14378 20.64326 50386 ft 1183 kts 254°
2026-04-19 19:41 35.11992 20.54721 51747 ft 1179 kts 254°
2026-04-19 19:41 35.09627 20.45236 53101 ft 1175 kts 254°
2026-04-19 19:41 35.07240 20.35686 54476 ft 1170 kts 254°
2026-04-19 19:42 35.04862 20.26203 55855 ft 1165 kts 253°
2026-04-19 19:42 35.02481 20.16727 57237 ft 1160 kts 253°
2026-04-19 19:42 35.00138 20.07428 58630 ft 1154 kts 253°
2026-04-19 19:42 34.97771 19.98058 60040 ft 1148 kts 253°
2026-04-19 19:43 34.95415 19.88748 61465 ft 1142 kts 253°
2026-04-19 19:43 34.93078 19.79532 62894 ft 1134 kts 253°
2026-04-19 19:43 34.90773 19.70465 64341 ft 1126 kts 253°
2026-04-19 19:43 34.88454 19.61359 66022 ft 1116 kts 253°
2026-04-19 19:44 34.86159 19.52363 67674 ft 1105 kts 253°
2026-04-19 19:44 34.83880 19.43455 69356 ft 1096 kts 253°
2026-04-19 19:44 34.81641 19.34719 71032 ft 1089 kts 253°
2026-04-19 19:44 34.79382 19.25919 72742 ft 1083 kts 253°
2026-04-19 19:45 34.77135 19.17184 74471 ft 1078 kts 253°
2026-04-19 19:45 34.74909 19.08544 76237 ft 1075 kts 253°
2026-04-19 19:45 34.72662 18.99837 77983 ft 1074 kts 253°
2026-04-19 19:45 34.70424 18.91178 79711 ft 1073 kts 253°
2026-04-19 19:46 34.68186 18.82534 81521 ft 1072 kts 253°
2026-04-19 19:46 34.65917 18.73878 83140 ft 1075 kts 252°
2026-04-19 19:46 34.63620 18.65280 83697 ft 1091 kts 253°
2026-04-19 19:46 34.61258 18.56436 83729 ft 1106 kts 253°
2026-04-19 19:47 34.58869 18.47490 83910 ft 1120 kts 253°
2026-04-19 19:47 34.56449 18.38439 84386 ft 1130 kts 253°
2026-04-19 19:47 34.54003 18.29296 83788 ft 1151 kts 253°
2026-04-19 19:47 34.51522 18.20019 80639 ft 1191 kts 253°
2026-04-19 19:48 34.48861 18.10346 78594 ft 1209 kts 252°
2026-04-19 19:48 34.46156 18.00581 73473 ft 1248 kts 252°
2026-04-19 19:48 34.43346 17.90411 67880 ft 1273 kts 252°
2026-04-19 19:48 34.40892 17.81112 50412 ft 1168 kts 253°
2026-04-19 19:49 34.38209 17.71453 29484 ft 1229 kts 251°
2026-04-19 19:49 34.35645 17.62689 10868 ft 968 kts 251°
2026-04-19 19:49 34.33425 17.55388 102 ft 953 kts 248°
2026-04-19 19:49 34.30167 17.49005 175 ft 902 kts 204°
2026-04-19 19:50 34.24775 17.50896 573 ft 871 kts 116°
2026-04-19 19:50 34.27276 17.55708 365 ft 841 kts 347°
2026-04-19 19:50 34.30169 17.50887 333 ft 828 kts 267°
2026-04-19 19:50 34.29446 17.44670 475 ft 772 kts 262°
2026-04-19 19:51 34.28637 17.38060 577 ft 808 kts 262°
2026-04-19 19:51 34.27796 17.31223 1001 ft 828 kts 262°
2026-04-19 19:51 34.26936 17.24260 1439 ft 843 kts 262°
2026-04-19 19:51 34.26069 17.17257 1890 ft 855 kts 262°
2026-04-19 19:52 34.25181 17.10080 2345 ft 867 kts 262°
2026-04-19 19:52 34.24281 17.02812 2807 ft 877 kts 261°
2026-04-19 19:52 34.23371 16.95473 3284 ft 887 kts 261°
2026-04-19 19:52 34.22450 16.88040 3765 ft 896 kts 262°
2026-04-19 19:53 34.21529 16.80634 4252 ft 905 kts 262°
2026-04-19 19:53 34.20585 16.73059 4761 ft 914 kts 262°
2026-04-19 19:53 34.19629 16.65418 5260 ft 924 kts 262°
2026-04-19 19:53 34.18661 16.57705 5765 ft 934 kts 262°
2026-04-19 19:54 34.17688 16.49989 6285 ft 944 kts 262°
2026-04-19 19:54 34.16689 16.42100 6804 ft 954 kts 262°
2026-04-19 19:54 34.15671 16.34092 7318 ft 966 kts 262°
2026-04-19 19:54 34.14652 16.26101 7850 ft 978 kts 262°
2026-04-19 19:55 34.13609 16.17935 8404 ft 989 kts 262°
2026-04-19 19:55 34.12549 16.09650 8978 ft 1000 kts 262°
2026-04-19 19:55 34.11479 16.01284 9563 ft 1012 kts 262°
2026-04-19 19:55 34.10395 15.92818 10161 ft 1024 kts 262°
2026-04-19 19:56 34.09314 15.84373 10718 ft 1035 kts 262°
2026-04-19 19:56 34.08210 15.75729 11295 ft 1046 kts 262°
2026-04-19 19:56 34.07097 15.66996 11887 ft 1057 kts 262°
2026-04-19 19:56 34.05979 15.58186 12495 ft 1068 kts 262°
2026-04-19 19:57 34.04863 15.49359 13122 ft 1080 kts 262°
2026-04-19 19:57 34.03732 15.40369 13776 ft 1092 kts 262°
2026-04-19 19:57 34.02587 15.31250 14395 ft 1097 kts 262°
2026-04-19 19:57 34.01445 15.22118 15003 ft 1099 kts 262°
2026-04-19 19:58 34.00304 15.12993 15629 ft 1099 kts 262°
2026-04-19 19:58 33.99182 15.04008 16260 ft 1099 kts 262°
2026-04-19 19:58 33.98038 14.94870 16618 ft 1102 kts 262°
2026-04-19 19:58 33.96787 14.85800 16458 ft 1099 kts 261°
2026-04-19 19:59 33.95615 14.76630 16143 ft 1107 kts 262°
2026-04-19 19:59 33.94498 14.67427 16506 ft 1105 kts 262°
2026-04-19 19:59 33.93436 14.58360 16912 ft 1104 kts 262°
2026-04-19 19:59 33.92375 14.49174 17334 ft 1103 kts 263°
2026-04-19 20:00 33.91322 14.40030 17766 ft 1102 kts 262°
2026-04-19 20:00 33.90260 14.30877 18215 ft 1101 kts 262°
2026-04-19 20:00 33.89188 14.21740 18637 ft 1100 kts 262°
2026-04-19 20:00 33.88116 14.12720 19029 ft 1099 kts 262°
2026-04-19 20:01 33.87012 14.03584 19442 ft 1097 kts 262°
2026-04-19 20:01 33.85896 13.94510 19852 ft 1096 kts 262°
2026-04-19 20:01 33.84763 13.85433 20274 ft 1094 kts 262°
2026-04-19 20:01 33.83627 13.76486 20702 ft 1092 kts 262°
2026-04-19 20:02 33.82462 13.67448 21150 ft 1090 kts 262°
2026-04-19 20:02 33.81282 13.58424 21615 ft 1088 kts 262°
2026-04-19 20:02 33.80091 13.49440 22086 ft 1087 kts 262°
2026-04-19 20:02 33.78885 13.40455 22574 ft 1085 kts 261°
2026-04-19 20:03 33.77668 13.31500 23067 ft 1083 kts 261°
2026-04-19 20:03 33.76454 13.22663 23560 ft 1081 kts 261°
2026-04-19 20:03 33.75215 13.13745 24014 ft 1078 kts 261°
2026-04-19 20:03 33.73979 13.04934 24445 ft 1076 kts 261°
2026-04-19 20:04 33.72724 12.96069 24899 ft 1074 kts 261°
2026-04-19 20:04 33.71458 12.87218 25363 ft 1072 kts 261°
2026-04-19 20:04 33.70183 12.78378 25838 ft 1071 kts 261°
2026-04-19 20:04 33.68897 12.69536 26331 ft 1076 kts 261°
2026-04-19 20:05 33.67606 12.60726 26843 ft 1088 kts 261°
2026-04-19 20:05 33.66271 12.51665 27396 ft 1106 kts 261°
2026-04-19 20:05 33.65373 12.45605 27771 ft 1119 kts 261°
2026-04-19 20:05 33.63515 12.33122 28585 ft 1149 kts 261°
2026-04-19 20:06 33.62106 12.23712 29208 ft 1171 kts 261°
2026-04-19 20:06 33.60643 12.13994 29852 ft 1191 kts 260°
2026-04-19 20:06 33.59655 12.07450 30261 ft 1202 kts 260°
2026-04-19 20:06 33.58147 11.97516 30786 ft 1215 kts 260°
2026-04-19 20:07 33.56617 11.87496 31307 ft 1225 kts 260°
2026-04-19 20:07 33.55066 11.77399 31844 ft 1232 kts 260°
2026-04-19 20:07 33.53514 11.67360 32385 ft 1238 kts 260°
2026-04-19 20:07 33.51935 11.57205 32956 ft 1242 kts 260°
2026-04-19 20:08 33.50334 11.46971 33577 ft 1246 kts 260°
2026-04-19 20:08 33.48726 11.36752 34216 ft 1248 kts 260°
2026-04-19 20:08 33.47103 11.26489 34790 ft 1250 kts 260°
2026-04-19 20:08 33.45494 11.16367 35386 ft 1250 kts 260°
2026-04-19 20:09 33.43859 11.06123 36013 ft 1249 kts 260°
2026-04-19 20:09 33.42217 10.95873 36650 ft 1247 kts 260°
2026-04-19 20:09 33.40578 10.85668 37299 ft 1245 kts 260°
2026-04-19 20:09 33.39428 10.75540 37945 ft 1241 kts 265°
2026-04-19 20:10 33.39103 10.65220 38575 ft 1237 kts 271°
2026-04-19 20:10 33.39612 10.54958 39085 ft 1235 kts 276°
2026-04-19 20:10 33.40947 10.44798 39534 ft 1233 kts 282°
2026-04-19 20:10 33.43087 10.34851 39957 ft 1232 kts 287°
2026-04-19 20:11 33.46024 10.25195 40360 ft 1232 kts 293°
2026-04-19 20:11 33.49950 10.16229 40723 ft 1233 kts 301°
2026-04-19 20:11 33.55061 10.07891 41097 ft 1235 kts 310°
2026-04-19 20:11 33.61145 10.00592 41447 ft 1238 kts 318°
2026-04-19 20:12 33.68099 9.94451 41774 ft 1242 kts 326°
2026-04-19 20:12 33.75419 9.88908 42083 ft 1243 kts 326°
2026-04-19 20:12 33.82424 9.83058 42389 ft 1239 kts 319°
2026-04-19 20:12 33.88722 9.75961 42659 ft 1235 kts 311°
2026-04-19 20:13 33.94083 9.67837 42889 ft 1232 kts 303°
2026-04-19 20:13 33.98352 9.59013 43089 ft 1230 kts 295°
2026-04-19 20:13 34.01585 9.49425 43273 ft 1229 kts 287°
2026-04-19 20:13 34.03662 9.39457 43425 ft 1229 kts 279°
2026-04-19 20:14 34.04588 9.29181 43534 ft 1230 kts 272°
2026-04-19 20:14 34.02808 9.08770 44055 ft 1232 kts 255°
2026-04-19 20:14 33.99842 8.99093 44266 ft 1235 kts 245°
2026-04-19 20:15 33.95537 8.90090 44027 ft 1242 kts 236°
2026-04-19 20:15 33.90106 8.82143 43407 ft 1253 kts 227°
2026-04-19 20:15 33.83486 8.75181 42441 ft 1266 kts 218°
2026-04-19 20:15 33.75963 8.69562 41178 ft 1281 kts 209°
2026-04-19 20:16 33.67683 8.65391 39679 ft 1297 kts 200°
2026-04-19 20:16 33.58981 8.62806 37852 ft 1313 kts 191°
2026-04-19 20:16 33.49791 8.61796 35657 ft 1331 kts 182°
2026-04-19 20:16 33.40580 8.63049 35537 ft 1336 kts 168°
2026-04-19 20:17 33.31791 8.66733 35582 ft 1339 kts 156°
2026-04-19 20:17 33.23792 8.72333 34130 ft 1352 kts 145°
2026-04-19 20:17 33.16675 8.79792 30953 ft 1369 kts 134°
2026-04-19 20:17 33.10771 8.88772 26418 ft 1375 kts 123°
2026-04-19 20:18 33.06140 8.98652 21937 ft 1340 kts 115°
2026-04-19 20:18 33.02951 9.08780 17391 ft 1182 kts 102°
2026-04-19 20:18 33.02193 9.15382 1043 ft 874 kts 97°
2026-04-19 20:18 33.01298 9.21345 1129 ft 656 kts 112°
2026-04-19 20:19 33.03843 9.24515 1041 ft 593 kts
2026-04-19 20:19 33.08112 9.24935 830 ft 608 kts
2026-04-19 20:19 33.12211 9.25332 961 ft 589 kts
2026-04-19 20:19 33.16274 9.25715 1094 ft 580 kts
2026-04-19 20:20 33.20902 9.26144 1238 ft 739 kts
2026-04-19 20:20 33.26310 9.26637 1426 ft 809 kts
2026-04-19 20:20 33.31982 9.26510 1726 ft 845 kts 343°
2026-04-19 20:20 33.37406 9.26068 870 ft 804 kts 18°
2026-04-19 20:21 33.42928 9.27149 379 ft 805 kts
2026-04-19 20:21 33.47884 9.28091 5052 ft 575 kts 358°
2026-04-19 20:21 33.52551 9.29932 6551 ft 822 kts 22°
2026-04-19 20:21 33.56283 9.34838 7672 ft 864 kts 75°
2026-04-19 20:22 33.57745 9.41837 7548 ft 863 kts 76°
2026-04-19 20:22 33.59180 9.48855 7294 ft 862 kts 76°
2026-04-19 20:22 33.60539 9.55677 7029 ft 765 kts 76°
2026-04-19 20:22 33.61704 9.61091 6771 ft 594 kts 69°
2026-04-19 20:23 33.63091 9.65257 6542 ft 497 kts 67°
2026-04-19 20:23 33.64345 9.68947 5993 ft 463 kts 68°
2026-04-19 20:23 33.65447 9.72629 5415 ft 470 kts 70°
2026-04-19 20:23 33.66600 9.76331 4805 ft 475 kts 66°
2026-04-19 20:24 33.68093 9.79767 4280 ft 446 kts 59°
2026-04-19 20:24 33.69501 9.82739 4167 ft 331 kts 60°
2026-04-19 20:24 33.70300 9.84502 4023 ft 176 kts 62°
2026-04-19 20:24 33.70847 9.85807 3585 ft 192 kts 64°
2026-04-19 20:25 33.71444 9.87375 4157 ft 156 kts 66°
2026-04-19 20:25 33.71982 9.88666 1304 ft 201 kts 60°
2026-04-19 20:25 33.72637 9.90167 522 ft 195 kts 65°
2026-04-19 20:25 33.73127 9.91360 410 ft 173 kts 62°
2026-04-19 20:26 33.73959 9.93268 1263 ft 345 kts 64°
2026-04-19 20:26 33.75357 9.96549 3036 ft 528 kts 63°
2026-04-19 20:26 33.77244 10.00973 5597 ft 663 kts 62°
2026-04-19 20:26 33.79496 10.06189 8766 ft 736 kts 62°
2026-04-19 20:27 33.81991 10.11905 11387 ft 807 kts 61°
2026-04-19 20:27 33.84733 10.18054 13378 ft 857 kts 61°
2026-04-19 20:27 33.87533 10.24562 15374 ft 892 kts 62°
2026-04-19 20:27 33.90348 10.31406 17030 ft 936 kts 63°
2026-04-19 20:28 33.93253 10.38638 17989 ft 995 kts 63°
2026-04-19 20:28 33.97065 10.45824 18528 ft 1046 kts 47°
2026-04-19 20:28 34.03070 10.50987 17583 ft 1079 kts 25°
2026-04-19 20:28 34.09832 10.54882 17267 ft 1096 kts 28°
2026-04-19 20:29 34.16571 10.59358 17439 ft 1101 kts 27°
2026-04-19 20:29 34.23616 10.63043 17078 ft 1105 kts 16°
2026-04-19 20:29 34.31201 10.64686 15221 ft 1117 kts
2026-04-19 20:30 34.46734 10.64079 13689 ft 1117 kts 357°
2026-04-19 20:30 34.54505 10.63991 13811 ft 1112 kts
2026-04-19 20:30 34.62144 10.65656 13384 ft 1115 kts 15°
2026-04-19 20:30 34.69373 10.69106 12460 ft 1117 kts 26°
2026-04-19 20:31 34.75960 10.74103 11286 ft 1109 kts 34°
2026-04-19 20:31 34.82225 10.79515 10642 ft 1087 kts 35°
2026-04-19 20:31 34.88228 10.84818 12043 ft 1071 kts 36°
2026-04-19 20:31 34.94248 10.90173 13437 ft 1072 kts 36°
2026-04-19 20:32 35.00307 10.95589 14804 ft 1081 kts 36°
2026-04-19 20:32 35.06389 11.01039 16176 ft 1084 kts 36°
2026-04-19 20:32 35.12411 11.06442 17614 ft 1085 kts 36°
2026-04-19 20:32 35.18833 11.11346 18754 ft 1086 kts 25°
2026-04-19 20:33 35.26006 11.14158 19667 ft 1076 kts 354°
2026-04-19 20:33 35.32740 11.10573 19758 ft 1079 kts 338°
2026-04-19 20:33 35.40251 11.09465 16996 ft 1107 kts 359°
2026-04-19 20:33 35.48043 11.09326 13877 ft 1129 kts 358°
2026-04-19 20:34 35.55911 11.08750 11229 ft 1122 kts 347°
2026-04-19 20:34 35.61021 11.02936 11924 ft 1081 kts 283°
2026-04-19 20:34 35.63711 10.94397 12984 ft 1067 kts 297°
2026-04-19 20:34 35.67344 10.86378 14137 ft 1082 kts 301°
2026-04-19 20:35 35.70883 10.79251 6803 ft 698 kts 304°
2026-04-19 20:35 35.75123 10.73555 578 ft 951 kts 323°
2026-04-19 20:35 35.79408 10.67885 859 ft 885 kts 303°
2026-04-19 20:35 35.83869 10.62833 1375 ft 871 kts 322°
2026-04-19 20:36 35.88759 10.58328 867 ft 872 kts 325°
2026-04-19 20:36 35.93745 10.54114 1888 ft 865 kts 326°
2026-04-19 20:36 35.97081 10.51388 2552 ft 867 kts 327°
2026-04-19 20:36 36.00473 10.48728 2756 ft 875 kts 330°
2026-04-19 20:37 36.09919 10.43880 2505 ft 890 kts 345°
2026-04-19 20:37 36.16075 10.42912 1997 ft 894 kts 360°
2026-04-19 20:37 36.22169 10.43807 953 ft 893 kts 13°
2026-04-19 20:37 36.27652 10.47079 1931 ft 868 kts 31°
2026-04-19 20:38 36.32741 10.51152 3266 ft 870 kts 33°
2026-04-19 20:38 36.37700 10.55601 4017 ft 888 kts 35°
2026-04-19 20:38 36.42950 10.59732 4313 ft 899 kts 24°
2026-04-19 20:38 36.48948 10.61562 2542 ft 847 kts
2026-04-19 20:39 36.54016 10.61932 1142 ft 634 kts 17°
2026-04-19 20:39 36.54865 10.65039 1863 ft 217 kts 343°
2026-04-19 20:39 36.55863 10.64205 703 ft 197 kts 323°
2026-04-19 20:39 36.57008 10.63131 664 ft 223 kts 288°
2026-04-19 20:40 36.58315 10.60905 330 ft 403 kts 308°
2026-04-19 20:40 36.59278 10.58739 206 ft 265 kts 295°
2026-04-19 20:40 36.59654 10.57256 507 ft 151 kts 358°
2026-04-19 20:40 36.59973 10.57123 166 ft 0 kts 308°
2026-04-19 20:44 36.60095 10.56930 0 ft 502 kts 305°
2026-04-19 20:46 36.61730 10.54070 0 ft 516 kts 303°
2026-04-19 20:46 36.63851 10.50300 0 ft 566 kts 301°
2026-04-19 20:46 36.66407 10.46224 0 ft 636 kts 331°
2026-04-19 20:46 36.69965 10.42189 0 ft 749 kts 335°
2026-04-19 20:47 36.74609 10.38250 0 ft 878 kts 338°
2026-04-19 20:47 36.80444 10.34354 0 ft 1019 kts 338°
2026-04-19 20:47 36.87387 10.30469 0 ft 1151 kts 339°
2026-04-19 20:47 36.95193 10.26617 0 ft 1239 kts 338°
2026-04-19 20:48 37.03566 10.22577 0 ft 1340 kts 338°
2026-04-19 20:48 37.12523 10.18225 0 ft 1453 kts 338°
2026-04-19 20:48 37.20996 10.13982 0 ft 1127 kts 335°
2026-04-19 20:48 37.27111 10.10809 96480 ft 752 kts 335°
2026-04-19 20:49 37.30891 10.08950 42439 ft 589 kts 336°
2026-04-19 20:49 37.36116 10.08221 15693 ft 727 kts 359°
2026-04-19 20:49 37.41449 10.07750 12608 ft 818 kts 355°
2026-04-19 20:49 37.47313 10.07126 12621 ft 885 kts 355°
2026-04-19 20:50 37.53642 10.06432 13092 ft 939 kts 355°
2026-04-19 20:50 37.60372 10.05691 13598 ft 996 kts 355°
2026-04-19 20:50 37.67461 10.04919 14121 ft 1040 kts 355°
2026-04-19 20:50 37.74707 10.04147 14630 ft 1068 kts 355°
2026-04-19 20:51 37.82179 10.03377 15171 ft 1083 kts 355°
2026-04-19 20:51 37.89775 10.02625 15734 ft 1091 kts 355°
2026-04-19 20:51 37.97376 10.01907 16313 ft 1095 kts 355°
2026-04-19 20:51 38.04888 10.01231 16902 ft 1097 kts 355°
2026-04-19 20:52 38.12534 10.00579 17528 ft 1097 kts 356°
2026-04-19 20:52 38.20168 9.99963 18184 ft 1096 kts 356°
2026-04-19 20:52 38.27723 9.99387 18791 ft 1095 kts 356°
2026-04-19 20:52 38.35340 9.98837 19385 ft 1094 kts 356°
2026-04-19 20:53 38.42951 9.98318 20006 ft 1092 kts 356°
2026-04-19 20:53 38.50545 9.97828 20640 ft 1091 kts 356°
2026-04-19 20:53 38.58141 9.97365 21306 ft 1089 kts 356°
2026-04-19 20:53 38.65724 9.96927 22007 ft 1087 kts 356°
2026-04-19 20:54 38.73219 9.96519 22706 ft 1085 kts 356°
2026-04-19 20:54 38.80764 9.96132 23449 ft 1083 kts 356°
2026-04-19 20:54 38.85763 9.95887 23909 ft 1082 kts 357°
2026-04-19 20:54 38.93287 9.95536 24558 ft 1079 kts 357°
2026-04-19 20:55 39.00794 9.95206 25234 ft 1076 kts 357°
2026-04-19 20:55 39.08309 9.94895 25952 ft 1085 kts 357°
2026-04-19 20:55 39.15796 9.94047 26727 ft 1099 kts 349°
2026-04-19 20:55 39.23243 9.91457 27481 ft 1122 kts 338°
2026-04-19 20:56 39.30242 9.86826 29525 ft 1136 kts 330°
2026-04-19 20:56 39.37247 9.81824 31462 ft 1157 kts 330°
2026-04-19 20:56 39.44268 9.76763 33435 ft 1173 kts 330°
2026-04-19 20:56 39.51442 9.71571 35350 ft 1181 kts 330°
2026-04-19 20:57 39.58648 9.66353 37288 ft 1183 kts 330°
2026-04-19 20:57 39.65843 9.61143 39239 ft 1181 kts 330°
2026-04-19 20:57 39.72678 9.55488 37342 ft 1036 kts 304°
2026-04-19 20:57 39.76835 9.49180 15041 ft 868 kts 310°
2026-04-19 20:58 39.80217 9.43414 4259 ft 687 kts 290°
2026-04-19 20:58 39.78085 9.40523 1770 ft 437 kts 135°
2026-04-19 20:58 39.75804 9.42851 1678 ft 424 kts 142°
2026-04-19 20:58 39.74496 9.45639 1824 ft 319 kts 70°
2026-04-19 20:59 39.75162 9.47613 2134 ft 209 kts 84°
2026-04-19 20:59 39.75681 9.48939 2926 ft 218 kts 360°
2026-04-19 20:59 39.77618 9.50113 2223 ft 426 kts 22°
2026-04-19 20:59 39.78650 9.50707 2838 ft 0 kts 343°
2026-04-19 21:00 39.79829 9.50270 3342 ft 255 kts 342°
2026-04-19 21:00 39.81172 9.47926 3432 ft 403 kts 287°
2026-04-19 21:00 39.81448 9.44735 2743 ft 327 kts 260°
2026-04-19 21:00 39.81242 9.42209 2760 ft 250 kts 281°
2026-04-19 21:01 39.80631 9.40529 1870 ft 204 kts 278°
2026-04-19 21:01 39.80608 9.39859 5312 ft 60 kts 91°
2026-04-19 21:01 39.80924 9.39323 2824 ft 308 kts 300°
2026-04-19 21:01 39.81688 9.36000 3119 ft 457 kts 283°
2026-04-19 21:02 39.81880 9.31060 3008 ft 651 kts 242°
2026-04-19 21:02 39.80052 9.26330 2660 ft 507 kts 270°
2026-04-19 21:02 39.80465 9.22334 2618 ft 409 kts 278°
2026-04-19 21:02 39.80750 9.19065 3376 ft 328 kts 276°
2026-04-19 21:03 39.81009 9.16296 3357 ft 290 kts 278°
2026-04-19 21:03 39.81345 9.13856 3238 ft 256 kts 282°
2026-04-19 21:03 39.81769 9.11788 3082 ft 224 kts 288°
2026-04-19 21:03 39.82246 9.10018 2736 ft 198 kts 267°
2026-04-19 21:04 39.81608 9.07176 2159 ft 470 kts 253°
2026-04-19 21:04 39.80759 9.02014 1739 ft 689 kts 266°
2026-04-19 21:04 39.81304 8.95375 2088 ft 777 kts 284°
2026-04-19 21:04 39.83310 8.88581 2141 ft 827 kts 295°
2026-04-19 21:05 39.85752 8.81628 2075 ft 855 kts 295°
2026-04-19 21:05 39.88263 8.74614 2534 ft 868 kts 295°
2026-04-19 21:05 39.90885 8.67455 3048 ft 878 kts 295°
2026-04-19 21:05 39.93609 8.60248 3469 ft 890 kts 296°
2026-04-19 21:06 39.96430 8.52974 3225 ft 903 kts 296°
2026-04-19 21:06 39.99304 8.45651 2960 ft 907 kts 297°
2026-04-19 21:06 40.02167 8.38413 2719 ft 907 kts 297°
2026-04-19 21:06 40.05097 8.31103 2467 ft 904 kts 297°
2026-04-19 21:07 40.08047 8.23863 2212 ft 900 kts 298°
2026-04-19 21:07 40.11005 8.16746 1958 ft 896 kts 298°
2026-04-19 21:07 40.14033 8.09614 1704 ft 891 kts 299°
2026-04-19 21:07 40.17092 8.02561 1454 ft 886 kts 299°
2026-04-19 21:08 40.20175 7.95592 1209 ft 881 kts 300°
2026-04-19 21:08 40.23237 7.88804 974 ft 876 kts 300°
2026-04-19 21:08 40.26376 7.81998 1234 ft 866 kts 301°
2026-04-19 21:08 40.29541 7.75300 2207 ft 863 kts 301°
2026-04-19 21:09 40.32770 7.68580 2703 ft 869 kts 302°
2026-04-19 21:09 40.35998 7.61953 3398 ft 876 kts 302°
2026-04-19 21:09 40.39342 7.55187 4092 ft 885 kts 303°
2026-04-19 21:09 40.42774 7.48353 4816 ft 897 kts 303°
2026-04-19 21:10 40.46239 7.41561 5511 ft 910 kts 304°
2026-04-19 21:10 40.49842 7.34609 6238 ft 924 kts 304°
2026-04-19 21:10 40.53532 7.27591 6956 ft 939 kts 304°
2026-04-19 21:10 40.57319 7.20490 7681 ft 955 kts 305°
2026-04-19 21:11 40.61156 7.13397 8424 ft 970 kts 305°
2026-04-19 21:11 40.65143 7.06127 9203 ft 985 kts 306°
2026-04-19 21:11 40.69245 6.98756 10025 ft 999 kts 306°
2026-04-19 21:11 40.73428 6.91344 10774 ft 1012 kts 306°
2026-04-19 21:12 40.77714 6.83858 11556 ft 1026 kts 307°
2026-04-19 21:12 40.82038 6.76413 12363 ft 1039 kts 307°
2026-04-19 21:12 40.86513 6.68810 13191 ft 1053 kts 307°
2026-04-19 21:12 40.91028 6.61207 13957 ft 1068 kts 308°
2026-04-19 21:13 40.95673 6.53443 14658 ft 1079 kts 308°
2026-04-19 21:13 41.00380 6.45649 15384 ft 1085 kts 308°
2026-04-19 21:13 41.05142 6.37844 16130 ft 1087 kts 308°
2026-04-19 21:13 41.09942 6.30067 16907 ft 1087 kts 309°
2026-04-19 21:14 41.14722 6.22410 17690 ft 1087 kts 309°
2026-04-19 21:14 41.19592 6.14697 18487 ft 1086 kts 309°
2026-04-19 21:14 41.24474 6.07049 19147 ft 1084 kts 309°
2026-04-19 21:14 41.29368 5.99382 19643 ft 1084 kts 309°
2026-04-19 21:15 41.34663 5.92400 19937 ft 1087 kts 320°
2026-04-19 21:15 41.40988 5.86787 19860 ft 1092 kts 329°
2026-04-19 21:15 41.47642 5.81877 19820 ft 1094 kts 330°
2026-04-19 21:15 41.54386 5.77028 19848 ft 1095 kts 331°
2026-04-19 21:16 41.61051 5.72371 19862 ft 1095 kts 332°
2026-04-19 21:16 41.67886 5.67754 19870 ft 1096 kts 333°
2026-04-19 21:16 41.74780 5.63279 19862 ft 1096 kts 334°
2026-04-19 21:16 41.81624 5.59022 19830 ft 1097 kts 335°
2026-04-19 21:17 41.88597 5.54765 19760 ft 1097 kts 335°
2026-04-19 21:17 41.95566 5.50550 19672 ft 1098 kts 335°
2026-04-19 21:17 42.02552 5.46370 19582 ft 1098 kts 335°
2026-04-19 21:17 42.09539 5.42237 19482 ft 1098 kts 335°
2026-04-19 21:18 42.16556 5.38134 19381 ft 1097 kts 336°
2026-04-19 21:18 42.23522 5.34109 19269 ft 1096 kts 336°
2026-04-19 21:18 42.30547 5.30095 19154 ft 1096 kts 336°
2026-04-19 21:18 42.37582 5.26120 19024 ft 1096 kts 336°
2026-04-19 21:19 42.44660 5.22165 18886 ft 1097 kts 337°
2026-04-19 21:19 42.51656 5.18299 18737 ft 1097 kts 337°
2026-04-19 21:19 42.58736 5.14429 18582 ft 1098 kts 337°
2026-04-19 21:19 42.65837 5.10589 18417 ft 1098 kts 338°
2026-04-19 21:20 42.72977 5.06769 18226 ft 1099 kts 338°
2026-04-19 21:20 42.80117 5.02992 18024 ft 1100 kts 338°
2026-04-19 21:20 42.87287 4.99239 17811 ft 1100 kts 338°
2026-04-19 21:20 42.94360 4.95577 17595 ft 1101 kts 338°
2026-04-19 21:21 43.01551 4.91896 17380 ft 1102 kts 339°
2026-04-19 21:21 43.08770 4.88239 17148 ft 1102 kts 339°
2026-04-19 21:21 43.15986 4.84623 16925 ft 1103 kts 339°
2026-04-19 21:21 43.23213 4.81042 16690 ft 1103 kts 339°
2026-04-19 21:22 43.30366 4.77535 16454 ft 1104 kts 340°
2026-04-19 21:22 43.37624 4.74015 16209 ft 1105 kts 340°
2026-04-19 21:22 43.44907 4.70522 15961 ft 1106 kts 340°
2026-04-19 21:22 43.52195 4.67060 15732 ft 1107 kts 340°
2026-04-19 21:23 43.59503 4.63664 15536 ft 1106 kts 344°
2026-04-19 21:23 43.66613 4.65981 14945 ft 1122 kts 48°
2026-04-19 21:23 43.67413 4.75720 13674 ft 1123 kts 125°
2026-04-19 21:23 43.62883 4.84526 14384 ft 1125 kts 126°
2026-04-19 21:24 43.58366 4.92971 14672 ft 1013 kts 127°
2026-04-19 21:24 43.54614 4.99895 14841 ft 796 kts 127°
2026-04-19 21:24 43.51622 5.05377 14936 ft 642 kts 128°
2026-04-19 21:24 43.48947 5.09697 14957 ft 548 kts 135°
2026-04-19 21:25 43.46322 5.13012 14950 ft 476 kts 139°
2026-04-19 21:25 43.44006 5.15805 14896 ft 423 kts 140°
2026-04-19 21:25 43.41905 5.18309 14792 ft 379 kts 140°
2026-04-19 21:25 43.40005 5.20567 14642 ft 352 kts 140°
2026-04-19 21:26 43.38187 5.22713 14475 ft 334 kts 141°
2026-04-19 21:26 43.36465 5.24671 14271 ft 307 kts 142°
2026-04-19 21:26 43.34816 5.26256 14048 ft 280 kts 149°
2026-04-19 21:26 43.33239 5.27649 13806 ft 260 kts 149°
2026-04-19 21:27 43.31727 5.29013 13448 ft 258 kts 149°
2026-04-19 21:27 43.30209 5.30391 12840 ft 262 kts 149°
2026-04-19 21:27 43.28701 5.31781 12435 ft 265 kts 145°
2026-04-19 21:27 43.27320 5.33444 12277 ft 261 kts 137°
2026-04-19 21:28 43.26074 5.35230 12207 ft 264 kts 134°
2026-04-19 21:28 43.24810 5.37167 12505 ft 273 kts 133°
2026-04-19 21:28 43.23609 5.39081 13522 ft 259 kts 132°
2026-04-19 21:28 43.22379 5.41054 13615 ft 284 kts 132°
2026-04-19 21:29 43.21064 5.43148 13730 ft 297 kts 132°
2026-04-19 21:29 43.19722 5.45262 14251 ft 291 kts 133°
2026-04-19 21:29 43.18359 5.47320 14625 ft 290 kts 135°
2026-04-19 21:29 43.16977 5.49289 15064 ft 288 kts 136°
2026-04-19 21:30 43.15531 5.51220 15285 ft 296 kts 136°
2026-04-19 21:30 43.14250 5.53670 15028 ft 340 kts 120°
2026-04-19 21:30 43.12993 5.56714 14891 ft 392 kts 120°
2026-04-19 21:30 43.11546 5.60199 14820 ft 447 kts 120°
2026-04-19 21:31 43.09942 5.64050 14799 ft 492 kts 120°
2026-04-19 21:31 43.08168 5.68307 14799 ft 534 kts 120°
2026-04-19 21:31 43.06253 5.72901 14822 ft 574 kts 120°
2026-04-19 21:31 43.04207 5.77807 14858 ft 611 kts 120°
2026-04-19 21:32 43.02079 5.82913 14904 ft 642 kts 120°
2026-04-19 21:32 42.99817 5.88342 14957 ft 662 kts 120°
2026-04-19 21:32 42.97520 5.93862 15009 ft 674 kts 120°
2026-04-19 21:32 42.95191 5.99466 15070 ft 680 kts 120°
2026-04-19 21:33 42.92850 6.05103 15122 ft 684 kts 120°
2026-04-19 21:33 42.92035 6.10987 16941 ft 630 kts 59°
2026-04-19 21:33 42.95452 6.14227 17834 ft 600 kts 12°
2026-04-19 21:33 42.99414 6.14193 13869 ft 557 kts 340°
2026-04-19 21:34 43.03205 6.12288 11081 ft 567 kts 338°
2026-04-19 21:34 43.06767 6.10456 9413 ft 537 kts 338°
2026-04-19 21:34 43.10179 6.08689 8281 ft 500 kts 338°
2026-04-19 21:34 43.13258 6.07089 8190 ft 458 kts 338°
2026-04-19 21:35 43.16143 6.05591 8082 ft 430 kts 338°
2026-04-19 21:35 43.18891 6.04163 7962 ft 411 kts 338°
2026-04-19 21:35 43.21524 6.02815 7860 ft 396 kts 338°
2026-04-19 21:35 43.24043 6.01562 7750 ft 383 kts 338°
2026-04-19 21:36 43.25271 6.00955 7689 ft 377 kts 338°
2026-04-19 21:37 43.25433 6.00875 7704 ft 0 kts 337°
2026-04-19 21:37 43.25899 6.00609 8641 ft 311 kts 335°
2026-04-19 21:37 43.27976 5.99372 9230 ft 316 kts 334°
2026-04-19 21:37 43.29919 5.98225 9630 ft 291 kts 334°
2026-04-19 21:38 43.31709 5.97173 9980 ft 266 kts 334°
2026-04-19 21:38 43.33317 5.96245 10203 ft 242 kts 334°
2026-04-19 21:38 43.34812 5.95404 10380 ft 223 kts 335°
2026-04-19 21:38 43.36247 5.94620 10539 ft 246 kts 335°
2026-04-19 21:39 43.38236 5.93523 11111 ft 376 kts 336°
2026-04-19 21:39 43.41099 5.91959 12191 ft 477 kts 337°
2026-04-19 21:39 43.44248 5.90288 13468 ft 491 kts 338°
2026-04-19 21:39 43.46200 5.91228 12765 ft 362 kts 97°
2026-04-19 21:40 43.45784 5.99227 11356 ft 439 kts 92°
2026-04-19 21:40 43.45707 6.03426 10656 ft 441 kts 90°
2026-04-19 21:40 43.45712 6.07778 9957 ft 465 kts 89°
2026-04-19 21:41 43.45833 6.12291 9197 ft 510 kts 86°
2026-04-19 21:41 43.46037 6.16953 8458 ft 459 kts 86°
2026-04-19 21:41 43.46221 6.21152 7779 ft 419 kts 85°
2026-04-19 21:41 43.46388 6.25003 7154 ft 387 kts 85°
2026-04-19 21:42 43.46530 6.28565 6578 ft 361 kts 86°
2026-04-19 21:42 43.46536 6.31734 6689 ft 299 kts 92°
2026-04-19 21:42 43.46380 6.34305 7022 ft 239 kts 94°
2026-04-19 21:42 43.46279 6.35754 7132 ft 230 kts 94°
2026-04-19 21:43 43.46112 6.37979 7364 ft 228 kts 93°
2026-04-19 21:43 43.45969 6.39976 6989 ft 194 kts 97°
2026-04-19 21:43 43.45727 6.41680 6686 ft 182 kts 104°
2026-04-19 21:43 43.45214 6.44375 6116 ft 236 kts 104°
2026-04-19 21:44 43.44922 6.45891 5489 ft 248 kts 104°
2026-04-19 21:44 43.44457 6.48217 4538 ft 263 kts 104°
2026-04-19 21:44 43.43933 6.50653 3961 ft 258 kts 106°
2026-04-19 21:44 43.43428 6.52923 3814 ft 237 kts 106°
2026-04-19 21:45 43.42962 6.55128 3656 ft 253 kts 104°
2026-04-19 21:45 43.42487 6.57717 3595 ft 340 kts 102°
2026-04-19 21:45 43.42020 6.60434 3663 ft 410 kts 103°